Time,TemperatureF,DewpointF,PressureIn,WindDirection,WindDirectionDegrees,WindSpeedMPH,WindSpeedGustMPH,Humidity,HourlyPrecipIn,Conditions,Clouds,dailyrainin,SoftwareType,DateUTC
2013-01-21 00:01:00,24.8,16.7,30.14,NW,312,1.0,1.0,71,0.00,,,0.00,Wunderground v.1.15,2013-01-21 05:01:00,
2013-01-21 00:03:00,24.8,16.7,30.15,NW,312,1.0,1.0,71,0.00,,,0.00,Wunderground v.1.15,2013-01-21 05:03:00,
2013-01-21 00:04:00,24.8,16.7,30.14,NW,311,0.0,1.0,71,0.00,,,0.00,Wunderground v.1.15,2013-01-21 05:04:00,
2013-01-21 00:09:00,24.7,17.0,30.15,NW,311,0.0,1.0,72,0.00,,,0.00,Wunderground v.1.15,2013-01-21 05:09:00,
2013-01-21 00:15:00,24.7,17.0,30.14,NW,311,0.0,1.0,72,0.00,,,0.00,Wunderground v.1.15,2013-01-21 05:15:00,
2013-01-21 00:21:00,24.6,16.9,30.14,NW,312,0.0,0.0,72,0.00,,,0.00,Wunderground v.1.15,2013-01-21 05:21:00,
2013-01-21 00:27:00,24.6,16.9,30.14,NW,311,0.0,2.0,72,0.00,,,0.00,Wunderground v.1.15,2013-01-21 05:27:00,
2013-01-21 00:33:00,24.5,16.8,30.14,NW,313,1.0,7.0,72,0.00,,,0.00,Wunderground v.1.15,2013-01-21 05:33:00,
2013-01-21 00:38:00,24.5,16.8,30.13,NW,313,1.0,7.0,72,0.00,,,0.00,Wunderground v.1.15,2013-01-21 05:38:00,
2013-01-21 00:44:00,24.4,17.0,30.12,NW,313,1.0,7.0,73,0.00,,,0.00,Wunderground v.1.15,2013-01-21 05:44:00,
2013-01-21 00:50:00,24.3,16.6,30.12,NW,311,1.0,1.0,72,0.00,,,0.00,Wunderground v.1.15,2013-01-21 05:50:00,
2013-01-21 00:56:00,24.2,16.8,30.12,NW,311,0.0,7.0,73,0.00,,,0.00,Wunderground v.1.15,2013-01-21 05:56:00,
2013-01-21 01:01:00,23.9,16.5,30.12,NW,311,0.0,0.0,73,0.00,,,0.00,Wunderground v.1.15,2013-01-21 06:01:00,
2013-01-21 01:06:00,23.5,16.4,30.12,NW,311,0.0,0.0,74,0.00,,,0.00,Wunderground v.1.15,2013-01-21 06:06:00,
2013-01-21 01:12:00,23.0,16.6,30.12,NW,310,0.0,0.0,76,0.00,,,0.00,Wunderground v.1.15,2013-01-21 06:12:00,
2013-01-21 01:18:00,22.6,16.5,30.12,NW,311,0.0,0.0,77,0.00,,,0.00,Wunderground v.1.15,2013-01-21 06:18:00,
2013-01-21 01:24:00,22.0,16.5,30.13,NW,311,0.0,0.0,79,0.00,,,0.00,Wunderground v.1.15,2013-01-21 06:24:00,
2013-01-21 01:29:00,21.6,16.4,30.13,NW,310,0.0,0.0,80,0.00,,,0.00,Wunderground v.1.15,2013-01-21 06:29:00,
2013-01-21 01:35:00,21.3,16.4,30.13,NW,311,0.0,4.0,81,0.00,,,0.00,Wunderground v.1.15,2013-01-21 06:35:00,
2013-01-21 01:41:00,21.4,16.8,30.13,NW,311,0.0,4.0,82,0.00,,,0.00,Wunderground v.1.15,2013-01-21 06:41:00,
2013-01-21 01:47:00,21.7,17.1,30.13,NW,310,0.0,4.0,82,0.00,,,0.00,Wunderground v.1.15,2013-01-21 06:47:00,
2013-01-21 01:52:00,22.0,17.6,30.13,NW,310,0.0,4.0,83,0.00,,,0.00,Wunderground v.1.15,2013-01-21 06:52:00,
2013-01-21 01:58:00,22.0,17.3,30.13,NW,311,0.0,4.0,82,0.00,,,0.00,Wunderground v.1.15,2013-01-21 06:58:00,
2013-01-21 02:04:00,22.2,17.8,30.13,NW,310,0.0,0.0,83,0.00,,,0.00,Wunderground v.1.15,2013-01-21 07:04:00,
2013-01-21 02:10:00,22.3,17.9,30.13,NW,310,0.0,0.0,83,0.00,,,0.00,Wunderground v.1.15,2013-01-21 07:10:00,
2013-01-21 02:16:00,22.4,17.7,30.13,NW,310,0.0,0.0,82,0.00,,,0.00,Wunderground v.1.15,2013-01-21 07:16:00,
2013-01-21 02:22:00,22.4,17.5,30.13,NW,311,0.0,0.0,81,0.00,,,0.00,Wunderground v.1.15,2013-01-21 07:22:00,
2013-01-21 02:27:00,22.5,17.8,30.12,NW,310,0.0,0.0,82,0.00,,,0.00,Wunderground v.1.15,2013-01-21 07:27:00,
2013-01-21 02:32:00,22.5,17.3,30.13,NW,311,0.0,0.0,80,0.00,,,0.00,Wunderground v.1.15,2013-01-21 07:32:00,
2013-01-21 02:37:00,22.6,17.4,30.13,NW,311,0.0,0.0,80,0.00,,,0.00,Wunderground v.1.15,2013-01-21 07:37:00,
2013-01-21 02:43:00,22.6,17.6,30.12,NW,310,0.0,0.0,81,0.00,,,0.00,Wunderground v.1.15,2013-01-21 07:43:00,
2013-01-21 02:49:00,22.7,17.2,30.12,NW,310,0.0,0.0,79,0.00,,,0.00,Wunderground v.1.15,2013-01-21 07:49:00,
2013-01-21 02:54:00,22.9,17.4,30.12,NW,310,0.0,0.0,79,0.00,,,0.00,Wunderground v.1.15,2013-01-21 07:54:00,
2013-01-21 02:59:00,23.0,16.9,30.13,NW,311,0.0,0.0,77,0.00,,,0.00,Wunderground v.1.15,2013-01-21 07:59:00,
2013-01-21 03:06:00,23.2,16.4,30.12,NW,311,0.0,0.0,75,0.00,,,0.00,Wunderground v.1.15,2013-01-21 08:06:00,
2013-01-21 03:11:00,23.4,16.0,30.12,NW,311,0.0,0.0,73,0.00,,,0.00,Wunderground v.1.15,2013-01-21 08:11:00,
2013-01-21 03:16:00,23.5,16.1,30.12,NW,321,0.0,2.0,73,0.00,,,0.00,Wunderground v.1.15,2013-01-21 08:16:00,
2013-01-21 03:22:00,23.6,16.2,30.12,NW,315,0.0,2.0,73,0.00,,,0.00,Wunderground v.1.15,2013-01-21 08:22:00,
2013-01-21 03:27:00,23.7,16.3,30.11,NW,315,0.0,2.0,73,0.00,,,0.00,Wunderground v.1.15,2013-01-21 08:27:00,
2013-01-21 03:32:00,23.8,16.1,30.11,NW,315,0.0,1.0,72,0.00,,,0.00,Wunderground v.1.15,2013-01-21 08:32:00,
2013-01-21 03:37:00,23.8,16.1,30.11,NW,315,0.0,1.0,72,0.00,,,0.00,Wunderground v.1.15,2013-01-21 08:37:00,
2013-01-21 03:42:00,23.9,16.2,30.11,NW,313,0.0,2.0,72,0.00,,,0.00,Wunderground v.1.15,2013-01-21 08:42:00,
2013-01-21 03:48:00,23.9,15.9,30.11,NW,313,1.0,2.0,71,0.00,,,0.00,Wunderground v.1.15,2013-01-21 08:48:00,
2013-01-21 03:53:00,23.9,15.9,30.11,WNW,299,1.0,2.0,71,0.00,,,0.00,Wunderground v.1.15,2013-01-21 08:53:00,
2013-01-21 03:58:00,23.9,15.9,30.11,WNW,302,1.0,3.0,71,0.00,,,0.00,Wunderground v.1.15,2013-01-21 08:58:00,
2013-01-21 04:03:00,23.9,15.9,30.11,WNW,302,1.0,1.0,71,0.00,,,0.00,Wunderground v.1.15,2013-01-21 09:03:00,
2013-01-21 04:09:00,23.9,15.9,30.10,WNW,302,0.0,2.0,71,0.00,,,0.00,Wunderground v.1.15,2013-01-21 09:09:00,
2013-01-21 04:14:00,23.9,16.2,30.10,WNW,302,0.0,0.0,72,0.00,,,0.00,Wunderground v.1.15,2013-01-21 09:14:00,
2013-01-21 04:19:00,23.9,16.2,30.10,SSE,165,0.0,2.0,72,0.00,,,0.00,Wunderground v.1.15,2013-01-21 09:19:00,
2013-01-21 04:25:00,23.8,16.1,30.10,West,281,0.0,3.0,72,0.00,,,0.00,Wunderground v.1.15,2013-01-21 09:25:00,
2013-01-21 04:31:00,23.8,16.1,30.10,NNW,342,1.0,3.0,72,0.00,,,0.00,Wunderground v.1.15,2013-01-21 09:31:00,
2013-01-21 04:37:00,23.7,16.0,30.09,South,180,1.0,3.0,72,0.00,,,0.00,Wunderground v.1.15,2013-01-21 09:37:00,
2013-01-21 04:42:00,23.7,16.0,30.10,WNW,288,1.0,3.0,72,0.00,,,0.00,Wunderground v.1.15,2013-01-21 09:42:00,
2013-01-21 04:47:00,23.7,16.0,30.10,WNW,288,1.0,3.0,72,0.00,,,0.00,Wunderground v.1.15,2013-01-21 09:47:00,
2013-01-21 04:53:00,23.6,16.2,30.09,WNW,288,0.0,3.0,73,0.00,,,0.00,Wunderground v.1.15,2013-01-21 09:53:00,
2013-01-21 04:59:00,23.6,16.5,30.09,SSE,164,0.0,4.0,74,0.00,,,0.00,Wunderground v.1.15,2013-01-21 09:59:00,
2013-01-21 05:04:00,23.4,16.6,30.09,SSW,203,1.0,1.0,75,0.00,,,0.00,Wunderground v.1.15,2013-01-21 10:04:00,
2013-01-21 05:10:00,23.3,16.9,30.09,SSE,149,1.0,1.0,76,0.00,,,0.00,Wunderground v.1.15,2013-01-21 10:10:00,
2013-01-21 05:15:00,23.3,16.9,30.09,SSE,149,1.0,1.0,76,0.00,,,0.00,Wunderground v.1.15,2013-01-21 10:15:00,
2013-01-21 05:21:00,23.2,17.1,30.09,SSE,149,1.0,2.0,77,0.00,,,0.00,Wunderground v.1.15,2013-01-21 10:21:00,
2013-01-21 05:27:00,23.1,17.0,30.09,SE,139,2.0,4.0,77,0.00,,,0.00,Wunderground v.1.15,2013-01-21 10:27:00,
2013-01-21 05:32:00,23.1,17.3,30.09,SSE,164,2.0,4.0,78,0.00,,,0.00,Wunderground v.1.15,2013-01-21 10:32:00,
2013-01-21 05:37:00,23.1,17.6,30.09,South,171,2.0,4.0,79,0.00,,,0.00,Wunderground v.1.15,2013-01-21 10:37:00,
2013-01-21 05:42:00,23.1,17.8,30.09,SE,140,2.0,4.0,80,0.00,,,0.00,Wunderground v.1.15,2013-01-21 10:42:00,
2013-01-21 05:47:00,23.1,17.8,30.08,SE,140,2.0,4.0,80,0.00,,,0.00,Wunderground v.1.15,2013-01-21 10:47:00,
2013-01-21 05:52:00,23.1,17.8,30.08,South,171,1.0,4.0,80,0.00,,,0.00,Wunderground v.1.15,2013-01-21 10:52:00,
2013-01-21 05:58:00,23.2,18.2,30.08,South,177,1.0,4.0,81,0.00,,,0.00,Wunderground v.1.15,2013-01-21 10:58:00,
2013-01-21 06:03:00,23.2,18.2,30.08,WSW,242,2.0,5.0,81,0.00,,,0.00,Wunderground v.1.15,2013-01-21 11:03:00,
2013-01-21 06:09:00,23.2,18.2,30.08,SSW,192,2.0,5.0,81,0.00,,,0.00,Wunderground v.1.15,2013-01-21 11:09:00,
2013-01-21 06:14:00,23.2,18.2,30.08,South,187,2.0,7.0,81,0.00,,,0.00,Wunderground v.1.15,2013-01-21 11:14:00,
2013-01-21 06:19:00,23.2,18.2,30.08,South,182,2.0,7.0,81,0.00,,,0.00,Wunderground v.1.15,2013-01-21 11:19:00,
2013-01-21 06:24:00,23.1,18.1,30.08,South,184,1.0,4.0,81,0.00,,,0.00,Wunderground v.1.15,2013-01-21 11:24:00,
2013-01-21 06:30:00,23.1,18.1,30.08,SSE,167,1.0,1.0,81,0.00,,,0.00,Wunderground v.1.15,2013-01-21 11:30:00,
2013-01-21 06:36:00,23.2,18.2,30.08,SSE,161,1.0,5.0,81,0.00,,,0.00,Wunderground v.1.15,2013-01-21 11:36:00,
2013-01-21 06:41:00,23.1,18.1,30.08,SSE,155,1.0,5.0,81,0.00,,,0.00,Wunderground v.1.15,2013-01-21 11:41:00,
2013-01-21 06:46:00,23.2,18.2,30.08,SSE,162,1.0,5.0,81,0.00,,,0.00,Wunderground v.1.15,2013-01-21 11:46:00,
2013-01-21 06:52:00,23.2,18.2,30.08,SSE,160,1.0,5.0,81,0.00,,,0.00,Wunderground v.1.15,2013-01-21 11:52:00,
2013-01-21 06:57:00,23.2,18.2,30.07,ESE,112,1.0,5.0,81,0.00,,,0.00,Wunderground v.1.15,2013-01-21 11:57:00,
2013-01-21 07:02:00,23.2,18.2,30.08,NW,306,2.0,2.0,81,0.00,,,0.00,Wunderground v.1.15,2013-01-21 12:02:00,
2013-01-21 07:08:00,23.3,18.3,30.08,ESE,119,1.0,2.0,81,0.00,,,0.00,Wunderground v.1.15,2013-01-21 12:08:00,
2013-01-21 07:13:00,23.3,18.0,30.08,SE,128,1.0,1.0,80,0.00,,,0.00,Wunderground v.1.15,2013-01-21 12:13:00,
2013-01-21 07:18:00,23.3,18.0,30.08,NW,318,1.0,3.0,80,0.00,,,0.00,Wunderground v.1.15,2013-01-21 12:18:00,
2013-01-21 07:24:00,23.3,18.0,30.08,WNW,301,1.0,3.0,80,0.00,,,0.00,Wunderground v.1.15,2013-01-21 12:24:00,
2013-01-21 07:29:00,23.3,18.0,30.08,South,173,1.0,3.0,80,0.00,,,0.00,Wunderground v.1.15,2013-01-21 12:29:00,
2013-01-21 07:34:00,23.4,17.8,30.08,SE,139,1.0,7.0,79,0.00,,,0.00,Wunderground v.1.15,2013-01-21 12:34:00,
2013-01-21 07:40:00,23.4,17.8,30.08,East,82,1.0,1.0,79,0.00,,,0.00,Wunderground v.1.15,2013-01-21 12:40:00,
2013-01-21 07:46:00,23.4,17.8,30.08,East,82,0.0,7.0,79,0.00,,,0.00,Wunderground v.1.15,2013-01-21 12:46:00,
2013-01-21 07:51:00,23.5,17.9,30.08,East,85,0.0,7.0,79,0.00,,,0.00,Wunderground v.1.15,2013-01-21 12:51:00,
2013-01-21 07:56:00,23.5,17.9,30.08,SSE,156,1.0,7.0,79,0.00,,,0.00,Wunderground v.1.15,2013-01-21 12:56:00,
2013-01-21 08:02:00,23.6,17.7,30.07,SSE,163,1.0,1.0,78,0.00,,,0.00,Wunderground v.1.15,2013-01-21 13:02:00,
2013-01-21 08:08:00,23.6,17.7,30.08,SSE,164,1.0,1.0,78,0.00,,,0.00,Wunderground v.1.15,2013-01-21 13:08:00,
2013-01-21 08:14:00,23.7,17.8,30.07,SE,128,0.0,1.0,78,0.00,,,0.00,Wunderground v.1.15,2013-01-21 13:14:00,
2013-01-21 08:20:00,23.7,17.8,30.07,SE,129,0.0,0.0,78,0.00,,,0.00,Wunderground v.1.15,2013-01-21 13:20:00,
2013-01-21 08:25:00,23.8,17.6,30.07,South,184,1.0,2.0,77,0.00,,,0.00,Wunderground v.1.15,2013-01-21 13:25:00,
2013-01-21 08:30:00,23.8,17.9,30.06,South,184,1.0,1.0,78,0.00,,,0.00,Wunderground v.1.15,2013-01-21 13:30:00,
2013-01-21 08:35:00,23.9,17.7,30.06,South,184,0.0,5.0,77,0.00,,,0.00,Wunderground v.1.15,2013-01-21 13:35:00,
2013-01-21 08:41:00,23.9,17.7,30.06,South,184,0.0,5.0,77,0.00,,,0.00,Wunderground v.1.15,2013-01-21 13:41:00,
2013-01-21 08:47:00,24.0,17.8,30.06,South,188,0.0,5.0,77,0.00,,,0.00,Wunderground v.1.15,2013-01-21 13:47:00,
2013-01-21 08:53:00,24.2,18.0,30.06,South,187,1.0,5.0,77,0.00,,,0.00,Wunderground v.1.15,2013-01-21 13:53:00,
2013-01-21 08:58:00,24.2,18.0,30.06,South,188,0.0,5.0,77,0.00,,,0.00,Wunderground v.1.15,2013-01-21 13:58:00,
2013-01-21 09:03:00,24.4,18.2,30.06,NW,306,0.0,2.0,77,0.00,,,0.00,Wunderground v.1.15,2013-01-21 14:03:00,
2013-01-21 09:08:00,24.5,18.3,30.06,NW,307,1.0,3.0,77,0.00,,,0.00,Wunderground v.1.15,2013-01-21 14:08:00,
2013-01-21 09:13:00,24.7,18.2,30.06,WNW,293,1.0,2.0,76,0.00,,,0.00,Wunderground v.1.15,2013-01-21 14:13:00,
2013-01-21 09:19:00,24.9,18.4,30.06,SSE,152,1.0,4.0,76,0.00,,,0.00,Wunderground v.1.15,2013-01-21 14:19:00,
2013-01-21 09:25:00,25.2,18.4,30.05,SSE,150,2.0,5.0,75,0.00,,,0.00,Wunderground v.1.15,2013-01-21 14:25:00,
2013-01-21 09:31:00,25.6,18.8,30.05,NW,311,2.0,2.0,75,0.00,,,0.00,Wunderground v.1.15,2013-01-21 14:31:00,
2013-01-21 09:36:00,25.7,18.6,30.05,South,169,1.0,3.0,74,0.00,,,0.00,Wunderground v.1.15,2013-01-21 14:36:00,
2013-01-21 09:42:00,26.0,18.5,30.05,SSW,212,2.0,3.0,73,0.00,,,0.00,Wunderground v.1.15,2013-01-21 14:42:00,
2013-01-21 09:48:00,26.1,18.6,30.05,South,169,2.0,4.0,73,0.00,,,0.00,Wunderground v.1.15,2013-01-21 14:48:00,
2013-01-21 09:53:00,26.2,18.4,30.05,NNE,22,2.0,5.0,72,0.00,,,0.00,Wunderground v.1.15,2013-01-21 14:53:00,
2013-01-21 09:58:00,26.2,18.1,30.05,SE,140,2.0,5.0,71,0.00,,,0.00,Wunderground v.1.15,2013-01-21 14:58:00,
2013-01-21 10:03:00,26.5,18.4,30.05,West,280,1.0,3.0,71,0.00,,,0.00,Wunderground v.1.15,2013-01-21 15:03:00,
2013-01-21 10:09:00,26.6,17.8,30.05,South,175,3.0,5.0,69,0.00,,,0.00,Wunderground v.1.15,2013-01-21 15:09:00,
2013-01-21 10:14:00,26.6,17.8,30.05,SW,233,3.0,5.0,69,0.00,,,0.00,Wunderground v.1.15,2013-01-21 15:14:00,
2013-01-21 10:19:00,26.7,17.9,30.05,SSE,152,3.0,5.0,69,0.00,,,0.00,Wunderground v.1.15,2013-01-21 15:19:00,
2013-01-21 10:25:00,26.8,17.6,30.04,NNW,332,2.0,5.0,68,0.00,,,0.00,Wunderground v.1.15,2013-01-21 15:25:00,
2013-01-21 10:31:00,27.0,17.8,30.04,SE,133,2.0,4.0,68,0.00,,,0.00,Wunderground v.1.15,2013-01-21 15:31:00,
2013-01-21 10:36:00,27.2,17.7,30.03,South,169,2.0,6.0,67,0.00,,,0.00,Wunderground v.1.15,2013-01-21 15:36:00,
2013-01-21 10:41:00,27.3,17.4,30.03,West,281,3.0,4.0,66,0.00,,,0.00,Wunderground v.1.15,2013-01-21 15:41:00,
2013-01-21 10:47:00,27.3,17.1,30.03,NW,325,3.0,6.0,65,0.00,,,0.00,Wunderground v.1.15,2013-01-21 15:47:00,
2013-01-21 10:53:00,27.5,17.6,30.02,NE,43,2.0,6.0,66,0.00,,,0.00,Wunderground v.1.15,2013-01-21 15:53:00,
2013-01-21 19:20:00,20.3,12.7,30.07,WNW,285,4.0,7.0,72,0.00,,,0.00,Wunderground v.1.15,2013-01-22 00:20:00,
2013-01-21 19:25:00,20.3,12.4,30.07,NNW,333,4.0,7.0,71,0.00,,,0.00,Wunderground v.1.15,2013-01-22 00:25:00,
2013-01-21 19:30:00,20.3,13.0,30.08,NNW,334,5.0,9.0,73,0.00,,,0.00,Wunderground v.1.15,2013-01-22 00:30:00,
2013-01-21 19:35:00,19.7,13.4,30.08,NNW,333,6.0,11.0,76,0.00,,,0.00,Wunderground v.1.15,2013-01-22 00:35:00,
2013-01-21 19:40:00,19.3,13.3,30.08,NW,323,7.0,7.0,77,0.00,,,0.00,Wunderground v.1.15,2013-01-22 00:40:00,
2013-01-21 19:46:00,18.9,12.9,30.08,NW,325,5.0,8.0,77,0.00,,,0.00,Wunderground v.1.15,2013-01-22 00:46:00,
2013-01-21 19:51:00,18.7,12.1,30.08,NNW,346,5.0,5.0,75,0.00,,,0.00,Wunderground v.1.15,2013-01-22 00:51:00,
2013-01-21 19:57:00,18.6,11.7,30.08,SW,221,4.0,4.0,74,0.00,,,0.00,Wunderground v.1.15,2013-01-22 00:57:00,
2013-01-21 20:03:00,18.5,11.0,30.08,North,351,3.0,7.0,72,0.00,,,0.00,Wunderground v.1.15,2013-01-22 01:03:00,
2013-01-21 20:08:00,18.4,10.2,30.08,WNW,301,3.0,7.0,70,0.00,,,0.00,Wunderground v.1.15,2013-01-22 01:08:00,
2013-01-21 20:13:00,18.3,9.5,30.08,WNW,286,3.0,5.0,68,0.00,,,0.00,Wunderground v.1.15,2013-01-22 01:13:00,
2013-01-21 20:18:00,18.3,8.8,30.09,NNW,342,4.0,7.0,66,0.00,,,0.00,Wunderground v.1.15,2013-01-22 01:18:00,
2013-01-21 20:23:00,18.2,10.4,30.08,NNW,329,5.0,10.0,71,0.00,,,0.00,Wunderground v.1.15,2013-01-22 01:23:00,
2013-01-21 20:28:00,17.9,11.3,30.09,NNW,345,6.0,10.0,75,0.00,,,0.00,Wunderground v.1.15,2013-01-22 01:28:00,
2013-01-21 20:34:00,17.5,11.8,30.09,West,281,5.0,16.0,78,0.00,,,0.00,Wunderground v.1.15,2013-01-22 01:34:00,
2013-01-21 20:39:00,17.3,12.5,30.09,WNW,289,4.0,16.0,81,0.00,,,0.00,Wunderground v.1.15,2013-01-22 01:39:00,
2013-01-21 20:44:00,17.0,12.7,30.09,WNW,303,3.0,16.0,83,0.00,,,0.00,Wunderground v.1.15,2013-01-22 01:44:00,
2013-01-21 20:49:00,16.7,13.0,30.09,NW,318,3.0,16.0,85,0.00,,,0.00,Wunderground v.1.15,2013-01-22 01:49:00,
2013-01-21 20:54:00,16.3,12.6,30.09,NW,322,4.0,16.0,85,0.00,,,0.00,Wunderground v.1.15,2013-01-22 01:54:00,
2013-01-21 21:01:00,16.0,12.6,30.10,NW,321,3.0,3.0,86,0.00,,,0.00,Wunderground v.1.15,2013-01-22 02:01:00,
2013-01-21 21:06:00,15.8,12.4,30.10,West,267,3.0,5.0,86,0.00,,,0.00,Wunderground v.1.15,2013-01-22 02:06:00,
2013-01-21 21:12:00,15.6,11.9,30.10,NW,325,2.0,3.0,85,0.00,,,0.00,Wunderground v.1.15,2013-01-22 02:12:00,
2013-01-21 21:17:00,15.5,11.5,30.10,WNW,289,3.0,5.0,84,0.00,,,0.00,Wunderground v.1.15,2013-01-22 02:17:00,
2013-01-21 21:22:00,15.4,11.2,30.10,WNW,294,3.0,6.0,83,0.00,,,0.00,Wunderground v.1.15,2013-01-22 02:22:00,
2013-01-21 21:27:00,15.4,10.6,30.10,NW,322,3.0,3.0,81,0.00,,,0.00,Wunderground v.1.15,2013-01-22 02:27:00,
2013-01-21 21:33:00,15.4,10.3,30.10,NNE,14,3.0,5.0,80,0.00,,,0.00,Wunderground v.1.15,2013-01-22 02:33:00,
2013-01-21 21:39:00,15.3,10.2,30.10,NNW,328,4.0,8.0,80,0.00,,,0.00,Wunderground v.1.15,2013-01-22 02:39:00,
2013-01-21 21:45:00,15.3,10.2,30.10,WSW,238,3.0,3.0,80,0.00,,,0.00,Wunderground v.1.15,2013-01-22 02:45:00,
2013-01-21 21:51:00,15.2,9.9,30.10,ENE,78,2.0,3.0,79,0.00,,,0.00,Wunderground v.1.15,2013-01-22 02:51:00,
2013-01-21 21:56:00,15.2,9.9,30.11,SE,144,1.0,2.0,79,0.00,,,0.00,Wunderground v.1.15,2013-01-22 02:56:00,
2013-01-21 22:01:00,15.2,10.1,30.11,WNW,289,2.0,6.0,80,0.00,,,0.00,Wunderground v.1.15,2013-01-22 03:01:00,
2013-01-21 22:07:00,15.0,9.9,30.11,NW,308,4.0,6.0,80,0.00,,,0.00,Wunderground v.1.15,2013-01-22 03:07:00,
2013-01-21 22:12:00,14.9,10.1,30.11,West,276,3.0,4.0,81,0.00,,,0.00,Wunderground v.1.15,2013-01-22 03:12:00,
2013-01-21 22:17:00,14.9,10.1,30.11,NW,315,3.0,4.0,81,0.00,,,0.00,Wunderground v.1.15,2013-01-22 03:17:00,
2013-01-21 22:23:00,14.8,10.3,30.11,NW,314,3.0,4.0,82,0.00,,,0.00,Wunderground v.1.15,2013-01-22 03:23:00,
2013-01-21 22:28:00,14.7,10.7,30.11,NNW,331,3.0,4.0,84,0.00,,,0.00,Wunderground v.1.15,2013-01-22 03:28:00,
2013-01-21 22:33:00,14.6,10.9,30.12,North,360,2.0,9.0,85,0.00,,,0.00,Wunderground v.1.15,2013-01-22 03:33:00,
2013-01-21 22:39:00,14.5,11.1,30.12,NNW,329,2.0,9.0,86,0.00,,,0.00,Wunderground v.1.15,2013-01-22 03:39:00,
2013-01-21 22:44:00,14.4,11.0,30.12,NW,318,2.0,9.0,86,0.00,,,0.00,Wunderground v.1.15,2013-01-22 03:44:00,
2013-01-21 22:50:00,14.4,11.0,30.12,SW,215,2.0,2.0,86,0.00,,,0.00,Wunderground v.1.15,2013-01-22 03:50:00,
2013-01-21 22:55:00,14.4,11.0,30.11,NNW,346,1.0,9.0,86,0.00,,,0.00,Wunderground v.1.15,2013-01-22 03:55:00,
2013-01-21 23:01:00,14.4,11.0,30.13,South,187,3.0,3.0,86,0.00,,,0.00,Wunderground v.1.15,2013-01-22 04:01:00,
2013-01-21 23:06:00,14.3,11.1,30.12,NW,316,4.0,7.0,87,0.00,,,0.00,Wunderground v.1.15,2013-01-22 04:06:00,
2013-01-21 23:11:00,13.9,10.7,30.13,NW,317,4.0,5.0,87,0.00,,,0.00,Wunderground v.1.15,2013-01-22 04:11:00,
2013-01-21 23:16:00,13.6,10.7,30.13,NW,306,4.0,5.0,88,0.00,,,0.01,Wunderground v.1.15,2013-01-22 04:16:00,
2013-01-21 23:22:00,13.4,10.5,30.13,WNW,283,2.0,3.0,88,0.08,,,0.02,Wunderground v.1.15,2013-01-22 04:22:00,
2013-01-21 23:27:00,13.2,10.6,30.13,NNE,19,2.0,6.0,89,0.08,,,0.02,Wunderground v.1.15,2013-01-22 04:27:00,
2013-01-21 23:33:00,13.0,10.4,30.13,SSW,209,3.0,12.0,89,0.05,,,0.02,Wunderground v.1.15,2013-01-22 04:33:00,
2013-01-21 23:38:00,12.8,10.2,30.13,NNW,327,3.0,12.0,89,0.04,,,0.02,Wunderground v.1.15,2013-01-22 04:38:00,
2013-01-21 23:43:00,12.7,10.1,30.13,NW,323,3.0,12.0,89,0.00,,,0.02,Wunderground v.1.15,2013-01-22 04:43:00,
2013-01-21 23:49:00,12.4,9.8,30.13,North,11,3.0,12.0,89,0.00,,,0.02,Wunderground v.1.15,2013-01-22 04:49:00,
2013-01-21 23:54:00,12.2,9.3,30.14,WSW,238,2.0,12.0,88,0.00,,,0.03,Wunderground v.1.15,2013-01-22 04:54:00,
2013-01-21 23:59:00,12.0,9.1,30.13,West,269,3.0,12.0,88,0.00,,,0.03,Wunderground v.1.15,2013-01-22 04:59:00,